This is the latest recevied weather packets stored in our database for station/object DG7FDL-7. If no packets are shown the sender has not sent any weather packets the latest 10 day(s).
| Time | Temp. | Humidity | Pressure | Rain* | Wind** | Luminosity | Snow |
|---|---|---|---|---|---|---|---|
| 1777896454 | 25° C | 39% | 1014.1 hPa | - | - | - | - |
| 1777895554 | 24.44° C | 40% | 1014.2 hPa | - | - | - | - |
| 1777894648 | 24.44° C | 40% | 1014.2 hPa | - | - | - | - |
| 1777893747 | 24.44° C | 40% | 1014.4 hPa | - | - | - | - |
| 1777892854 | 24.44° C | 40% | 1014.6 hPa | - | - | - | - |
| 1777891947 | 23.89° C | 40% | 1014.7 hPa | - | - | - | - |
| 1777891048 | 23.33° C | 40% | 1014.9 hPa | - | - | - | - |
| 1777890147 | 23.33° C | 40% | 1015 hPa | - | - | - | - |
| 1777889247 | 23.89° C | 38% | 1015.1 hPa | - | - | - | - |
| 1777888347 | 23.33° C | 38% | 1015.2 hPa | - | - | - | - |
| 1777887446 | 23.33° C | 38% | 1015.2 hPa | - | - | - | - |
| 1777886546 | 23.33° C | 38% | 1015.3 hPa | - | - | - | - |
| 1777885646 | 23.33° C | 37% | 1015.5 hPa | - | - | - | - |
| 1777884754 | 23.33° C | 37% | 1015.5 hPa | - | - | - | - |
| 1777883856 | 23.33° C | 38% | 1015.6 hPa | - | - | - | - |
| 1777882946 | 23.33° C | 37% | 1015.6 hPa | - | - | - | - |
| 1777882046 | 23.33° C | 37% | 1015.6 hPa | - | - | - | - |
| 1777881154 | 23.33° C | 37% | 1015.5 hPa | - | - | - | - |
| 1777880254 | 23.33° C | 37% | 1015.4 hPa | - | - | - | - |
| 1777879344 | 22.78° C | 38% | 1015.4 hPa | - | - | - | - |
| 1777878444 | 23.33° C | 37% | 1015.3 hPa | - | - | - | - |
| 1777877544 | 23.33° C | 37% | 1015.3 hPa | - | - | - | - |
| 1777876644 | 23.33° C | 37% | 1015.2 hPa | - | - | - | - |
| 1777875744 | 23.33° C | 37% | 1015.1 hPa | - | - | - | - |
| 1777874844 | 23.33° C | 36% | 1015.1 hPa | - | - | - | - |
* Rain since midnight (hover to see other rain measurements)
** Current wind speed in m/s (hover to see current wind gust speed)